Regional Weather Roundup
Issued by NWS

Home | Current Version | Previous Version | Text Only | Print | Product List | Glossary On
Versions: 1 2 3 4 5 6 7 8 9 10 11 12 13 14 15 16 17 18 19 20 21 22 23 24 25 26 27 28 29 30 31 32 33 34 35 36 37 38 39 40 41 42 43 44 45 46 47 48 49 50
000
ASUS43 KLOT 260910
RWRIL

ILLINOIS REGIONAL WEATHER ROUNDUP
NATIONAL WEATHER SERVICE CHICAGO/ROMEOVILLE IL
300 AM CST WED NOV 26 2014

NOTE: "FAIR" INDICATES FEW OR NO CLOUDS BELOW 12,000 FEET WITH NO
SIGNIFICANT WEATHER AND/OR OBSTRUCTIONS TO VISIBILITY.

* THESE STATIONS ARE NOT UNDER NWS QUALITY CONTROL. THEY ALSO MAY NOT
  REPORT WEATHER SUCH AS PRECIPITATION OR FOG.

ILZ001-002-007-009-015-016-024-261000-
NORTHWEST ILLINOIS

CITY           SKY/WX    TMP DP  RH WIND       PRES   REMARKS
MOLINE         PTCLDY    14  10  84 E8        30.10F WCI   3
STERLING*      PTCLDY    12   9  85 E5        30.13S WCI   4
SAVANNA*       PTCLDY    12  10  89 NE5       30.13F WCI   5
$$

ILZ003-004-008-010-011-017-018-261000-
NORTH CENTRAL ILLINOIS

CITY           SKY/WX    TMP DP  RH WIND       PRES   REMARKS
ROCKFORD       CLEAR     11   7  84 CALM      30.16S FOG
FREEPORT*      CLEAR      8   5  89 SE3       30.15S FOG
ROCHELLE*      CLEAR     13  11  92 SE6       30.14S FOG     WCI   3
DE KALB*       PTCLDY    10   8  89 E5        30.14F FOG     WCI   2
PERU*          CLEAR     18  16  93 E5        30.14F WCI  11
$$

ILZ005-006-012>014-019>023-261000-
NORTHEAST ILLINOIS

CITY           SKY/WX    TMP DP  RH WIND       PRES   REMARKS
CHICAGO-OHARE  PTCLDY    19  15  84 NE3       30.17S
CHICAGO-MIDWAY CLOUDY    22  17  81 CALM      30.19R
AURORA         CLEAR     12   8  84 NE5       30.15F FOG     WCI   4
LANSING*       CLOUDY    24  19  84 CALM      30.19S
JOLIET*        PTCLDY    14  12  92 CALM      30.17F FOG
WAUKEGAN       PTCLDY    13  10  88 CALM      30.16F
DUPAGE AIRPORT CLEAR      9   7  92 NE3       30.15F FOG
KANKAKEE*      CLEAR    N/A N/A N/A CALM      30.18R
WHEELING       CLOUDY    20  16  84 CALM      30.20F
MORRIS*        CLEAR     17  17  97 E5        30.15F FOG     WCI  10
ROMEOVILLE*    CLEAR     19  18  96 E5        30.16F WCI  12
NORTHERLY ISL    N/A     22  18  85 CALM        N/A
$$

LMZ740>746-261000-
SOUTHERN LAKE MICHIGAN

STATION/POSITION SKY/WX   TEMP    WIND        PRES    VSBY  WAVE
                          AIR SEA DIR/SP/G                  HT/PER
                          (F)     (DEG/KT/KT) (MB)    (MI)  (FT/S)
SOUTHERN BUOY              28 42  260/  8/ 12 1022.9S         2/ 5
WAUKEGAN HARBOR            19     300/  3/  4   N/A
HARRISON CRIB              23     240/  1/  2   N/A
BURNHAM HARBOR             22     170/  3/  6   N/A
CALUMET HARBOR             22     170/  1/  2 1020.9F
MICHIGAN CITY              23     180/  3/  6   N/A
$$

ILZ025>027-034>036-040-047-049-050-058-095>099-261000-
WEST-CENTRAL ILLINOIS

CITY           SKY/WX    TMP DP  RH WIND       PRES   REMARKS
QUINCY         MOCLDY    27  21  78 SE8       30.05F WCI  19
GALESBURG*     PTCLDY    20  19  96 E7        30.09F WCI  11
MACOMB*        MOCLDY    22  21  98 E3        30.10F
JACKSONVILLE*  MOCLDY    28  25  87 SE6       30.10S WCI  22
PITTSFIELD*    PTCLDY    28  25  87 SE6       30.08F WCI  22
$$

ILZ028>032-037-038-041>044-048-051>054-059>061-261000-
CENTRAL ILLINOIS

CITY           SKY/WX    TMP DP  RH WIND       PRES   REMARKS
PONTIAC        CLEAR     22  20  91 E8        30.15F WCI  13
BLOOMINGTON    CLEAR     22  20  92 SE8       30.12F WCI  13
DECATUR        CLEAR     21  18  88 SE6       30.13F WCI  13
PEORIA         PTCLDY    22  18  85 CALM      30.12F
LACON*         PTCLDY    16  14  89 CALM      30.13F
LINCOLN*       CLEAR     23  21  93 CALM      30.14F
SPRINGFIELD    CLEAR     23  21  92 CALM      30.12S
TAYLORVILLE    CLEAR     25  23  93 SE7       30.13S WCI  17
$$

ILZ033-039-045-046-055>057-062-063-261000-
EAST-CENTRAL ILLINOIS

CITY           SKY/WX    TMP DP  RH WIND       PRES   REMARKS
CHAMPAIGN      CLEAR     20  17  88 E8        30.15S WCI  10
DANVILLE*      FAIR      21  19  94 E3        30.13F
RANTOUL*       CLEAR     21  19  89 E5        30.15S WCI  15
MATTOON        CLEAR     23  20  88 SE3       30.13F
PARIS*         CLEAR     24  23  95 CALM      30.17S
$$

ILZ079-100>102-261000-
SOUTHWEST ILLINOIS

CITY           SKY/WX    TMP DP  RH WIND       PRES   REMARKS
ALTON          PTCLDY    27  25  91 E7        30.11F WCI  20
BELLEVILLE     CLEAR     24  24  99 E2        30.12F
CAHOKIA*       PTCLDY    28  25  88 SE5       30.11F WCI  23
SPARTA*        CLEAR     27  24  91 SE7       30.13F WCI  19
$$

ILZ064>066-069>071-074>076-080>082-084>086-088>090-092>094-261000-
SOUTH-CENTRAL ILLINOIS

CITY           SKY/WX    TMP DP  RH WIND       PRES   REMARKS
CARBONDALE     CLEAR     22  20  92 SE5       30.14F WCI  16
CAIRO*         CLEAR     27  24  89 NE6       30.15F WCI  21
EFFINGHAM*     CLEAR     24  21  90 CALM      30.15S
MARION         CLEAR     25  23  93 CALM      30.15F
MT. VERNON     CLEAR     21  14  73 CALM      30.15S
CENTRALIA*     CLEAR     25  22  89 E3        30.14S
SALEM*           N/A     28  24  87 SE5       30.14F WCI  22
METROPOLIS*    CLEAR     23  23 100 CALM        N/A  FOG
$$

ILZ067-068-072-073-078-083-087-091-261000-
SOUTHEAST ILLINOIS

CITY           SKY/WX    TMP DP  RH WIND       PRES   REMARKS
LAWRENCEVILLE  CLEAR     25  23  92 NE6       30.17F WCI  18
FLORA*         CLEAR     23  23 100 CALM      30.17S
FAIRFIELD*     CLEAR     22  22  96 CALM      30.15F FOG
HARRISBURG*    CLEAR     25  25 100 E5        30.17S WCI  19
ROBINSON*      CLEAR     24  22  93 E3        30.18F
CARMI*         FAIR      23  23 100 CALM      30.16F FOG
$$

ABBREVIATIONS USED IN REMARKS
   TC - TEMPERATURE IN CELSIUS
  WCI - WIND CHILL INDEX
   HX - HEAT INDEX
  VSB - VISIBILITY
$$



USA.gov is the U.S. government's official web portal to all federal, state and local government web resources and services.